Find Starlink 30945

NORAD ID: 58874 Int'l Des: 2024-019 Owner: SPXS Country: US Constellation: starlink operational
LEOCIRCULAR

現在のビュー

3D地球を読み込み中...

About Starlink 30945

Starlink 30945 (NORAD 58874) is a starlink constellation satellite (v2 mini) launched Jan 29, 2024 by SPXS of US. It operates in LEO, CIRCULAR orbit with a mass of 730.00 kg.

Starlink 30945について

説明を読み込み中...

次回通過

Passes for default location (London). Set your location on the main map for personalized predictions.

高度履歴

Loading altitude history...

軌道要素

1 58874U 24019X 26194.51416087 .00001386 00000-0 59889-4 0 9993
2 58874 43.0023 258.4943 0001600 275.4406 84.6263 15.27584059138328
Epoch: Jul 13, 2026 • Age: 16 hours

現在のステータス

高度 484.8 km
遠地点 / 近地点 N/A
速度 7.62 km/s
衛星直下点 -12.74°S, 110.43°W
打ち上げ日 Jan 29, 2024
運用期間 2.4 years
タイプ internet

技術仕様

分類 Payload
質量 730.00 kg
乾燥質量 700.00 kg
総質量 730.00 kg
長さ 0.30 m
直径 4.10 m
スパン 29.00 m
形状 Box + pan
製造者 SPXS
バスタイプ Starlink V2M
フェーズステータス In Orbit
所有者/国 SPXS/US

Most Searched